Location: Hohenfelde
(53.8441°N, 9.6220°E)
Time: 12:31:00
(UTC+00:00)

Cosmos 1697 Rocket - Pass Details

Date: 14 July 2020
Orbit: 834 x 842 km, 71.0° (Epoch: 13 August)

Event Time Altitude Azimuth Distance (km) Brightness Sun altitude
Rises 02:07:08 0° 323° (NW) 3,400 6.1 -7.1°
Reaches altitude 10° 02:09:49 10° 314° (NW) 2,460 5.2 -6.8°
Maximum altitude 02:14:42 31° 253° (WSW) 1,420 3.5 -6.4°
Drops below altitude 10° 02:19:34 10° 193° (SSW) 2,441 4.6 -5.9°
Sets 02:22:13 0° 183° (S) 3,370 5.3 -5.7°
